Regional Weather Roundup
Issued by NWS

Home | Current Version | Previous Version | Graphics & Text | Print | Product List | Glossary On
Versions: 1 2 3 4 5 6 7 8 9 10 11 12 13 14 15 16 17 18 19 20 21 22 23 24 25 26 27 28 29 30 31 32 33 34 35 36 37 38 39 40 41 42 43 44 45 46 47 48 49 50
000
ASUS43 KMPX 171310
RWRMN
WEATHER ROUNDUP FOR MINNESOTA
NATIONAL WEATHER SERVICE TWIN CITIES/CHANHASSEN MN
700 AM CST SUN DEC 17 2017


NOTE: "FAIR" INDICATES FEW OR NO CLOUDS BELOW 12,000 FEET WITH NO
SIGNIFICANT WEATHER AND/OR OBSTRUCTIONS TO VISIBILITY. N/A MEANS
CURRENT SKY AND/OR WEATHER CONDITIONS ARE NOT AVAILABLE.

MNZ060>063-068>070-171400-
   Twin Cities Metro

CITY           SKY/WX    TMP DP  RH WIND       PRES   REMARKS
TWIN CITIES    CLOUDY    22  21  96 CALM      30.10S
ST PAUL        CLOUDY    22  21  96 CALM      30.12S FOG
CRYSTAL        CLOUDY    21  16  81 CALM      30.10S
BLAINE         CLOUDY    23  21  93 CALM      30.10R FOG
LAKEVILLE      FOG       19  19 100 CALM      30.09F VSB 1/2
EDEN PRAIRIE   CLOUDY    22  19  89 E3        30.09S
SOUTH ST PAUL  CLOUDY    23  22  97 CALM      30.11R FOG
LAKE ELMO      CLOUDY    23  23 100 CALM      30.11R FOG
$$
MNZ001>005-007-008-013>017-022>024-027-028-171400-
   Northwest Minnesota

CITY           SKY/WX    TMP DP  RH WIND       PRES   REMARKS
BEMIDJI        CLOUDY    22  21  96 S5        30.01F FOG     WCI  15
HALLOCK        CLEAR      9   7  92 S6        29.97S WCI  -1
ROSEAU         CLEAR     19  16  86 S7        29.96R WCI  10
WARROAD        CLOUDY    23  19  86 SW7       29.96R FOG     WCI  15
THIEF RVR FALL CLOUDY    21  19  93 SW9       30.00F FOG     WCI  11
CROOKSTON      CLOUDY    16  16 100 S3        30.03S FOG
FOSSTON        CLOUDY    18  16  93 S7        30.01S WCI   8
DETROIT LAKES  CLOUDY    25  23  93 S6        30.03F FOG     WCI  18
MOORHEAD       CLOUDY    23  21  93 CALM      30.05S
PARK RAPIDS    CLOUDY    24  21  88 S7        30.02F FOG     WCI  16
MAHNOMEN       FAIR      22  21  96 S6        30.02S WCI  15
$$
MNZ006-009>011-018-025>026-171400-
   North Central Minnesota

CITY           SKY/WX    TMP DP  RH WIND       PRES   REMARKS
BAUDETTE       CLOUDY    24  23  96 SW9       29.96S WCI  14
FLAG ISLAND    CLOUDY    19  18  93 SW5       29.94S FOG     WCI  13
INTL FALLS     CLOUDY    22  20  92 SW12      29.99F FOG     WCI  10
WASKISH        CLOUDY    23  21  93 CALM      30.00F
BIG FORK       CLOUDY    23  21  93 S5        30.02F WCI  17
LONGVILLE      CLOUDY    23  21  93 S3        30.05S FOG
GRAND RAPIDS   CLOUDY    21  21 100 S5        30.06S FOG     WCI  15
CRANE LAKE     CLOUDY    19  18  93 S5        30.05F WCI  13
ORR            CLOUDY    19  18  93 S5        30.01S WCI  13
COOK           CLOUDY    19  19 100 S5        30.04S FOG     WCI  13
WALKER         CLOUDY    23  22  97 S6        30.02F FOG     WCI  16
$$
MNZ012-019>021-037-171400-
   Northeast Minnesota

CITY           SKY/WX    TMP DP  RH WIND       PRES   REMARKS
DULUTH         CLOUDY    19  19 100 S7        30.06S FOG     WCI  10
ELY            CLOUDY    19  19 100 CALM      30.04S
HIBBING        CLOUDY    19  18  95 CALM      30.05S
EVELETH        CLOUDY    20  17  87 S3        30.06S FOG
DULUTH HARBOR  CLOUDY    23  19  86 SW5       30.13S WCI  17
TWO HARBORS    CLOUDY    25  19  80 CALM      30.07R
SILVER BAY     CLOUDY    21  19  93 CALM      30.07R
GRAND MARAIS     N/A     28  22  78 W5        30.08F WCI  23
G MARAIS ARPRT CLOUDY    19  18  93 CALM      30.01F
$$
MNZ029>031-032-039>041-046>048-054>057-064-171400-
   West Central Minnesota

CITY           SKY/WX    TMP DP  RH WIND       PRES   REMARKS
FERGUS FALLS   CLOUDY    25  25 100 SE5       30.08S FOG     WCI  19
WHEATON        CLOUDY    25  21  86 SE5       30.09R FOG     WCI  19
MORRIS         CLOUDY    28  27  93 CALM      30.05F FOG
ALEXANDRIA     CLOUDY    27  26  96 CALM      30.06R FOG
ELBOW LAKE     FAIR      24  24  99 SE5       30.06R FOG     WCI  18
WADENA         CLOUDY    23  23 100 CALM      30.05S FOG
GLENWOOD       CLOUDY    27  27 100 CALM      30.06S FOG
APPLETON       CLOUDY    28  27  93 SE3       30.06F FOG
BENSON         CLOUDY    28  27  93 CALM      30.07F FOG
ORTONVILLE     CLOUDY    27  25  93 SE5       30.05F FOG     WCI  21
MADISON        CLOUDY    28  28 100 SE6       30.08R FOG     WCI  22
WILLMAR        CLOUDY    27  25  93 E3        30.08F FOG
$$
MNZ033>034-036-042>043-049>051-058-059-171400-
   Central Minnesota

CITY           SKY/WX    TMP DP  RH WIND       PRES   REMARKS
ST CLOUD       CLOUDY    20  17  88 SE3       30.09S
SAUK CENTRE    CLOUDY    24  24  97 CALM      30.07S FOG
PAYNESVILLE    CLOUDY    24  24 100 E3        30.08S FOG
AITKIN         CLOUDY    21  19  93 CALM      30.06R FOG
PINE RIVER     CLOUDY    23  21  93 CALM      30.08S FOG
BRAINERD       CLOUDY    24  22  91 S5        30.07R FOG     WCI  18
STAPLES        CLOUDY    25  25 100 CALM      30.06R FOG
LONG PRAIRIE   CLOUDY    25  23  93 CALM      30.07S FOG
LITTLE FALLS   CLOUDY    23  21  93 CALM      30.09R FOG
LITCHFIELD     CLOUDY    25  21  86 NE5       30.08F WCI  19
BUFFALO        CLOUDY    20  17  88 NE3       30.10F
MAPLE LAKE     CLOUDY    22  19  91 E3        30.09F
HUTCHINSON     CLEAR     24  21  89 NE3       30.09F
$$
MNZ037-044-045-052-053-171400-
   East Central Minnesota

CITY           SKY/WX    TMP DP  RH WIND       PRES   REMARKS
PRINCETON      CLOUDY    21  18  86 CALM      30.09S
MORA           CLOUDY    21  18  86 CALM      30.11S
CAMBRIDGE      CLOUDY    21  18  86 CALM      30.11R
RUSH CITY      MOCLDY    18  16  92 CALM      30.11S
MOOSE LAKE     CLOUDY    21  19  93 CALM      30.07F
HINCKLEY       CLOUDY    21  19  93 CALM      30.10S
CLOQUET        CLOUDY    19  18  93 CALM      30.07S
MCGREGOR       CLOUDY    23  21  93 S3        30.07S
$$
MNZ071>073-080-081-089-090-097-098-171400-
   Southwest Minnesota

CITY           SKY/WX    TMP DP  RH WIND       PRES   REMARKS
MONTEVIDEO     CLOUDY    27  27 100 SE3       30.08S FOG
GRANITE FALLS  CLOUDY    27  25  94 NE3       30.09S FOG
CANBY          FOG       28  28  99 E5        30.08S VSB 1   WCI  23
MARSHALL       CLOUDY    25  24  96 E6        30.08S WCI  18
REDWOOD FALLS  CLOUDY    26  24  92 E6        30.09R FOG     WCI  19
OLIVIA         CLOUDY    27  23  86 CALM      30.08S FOG
PIPESTONE      CLOUDY    25  21  86 SE3       30.05R FOG
WINDOM         HAZE      25  16  68 N3        30.06S VSB 1/2
WORTHINGTON    LGT SNOW  24  23  96 NE12      30.06F VSB 3/4 WCI  13
JACKSON        FOG       27  23  86 NE5       30.05F VSB 1/2 WCI  21
TRACY          CLOUDY    25  25 100 CALM      30.07R FOG
SLAYTON        CLOUDY    25  24  98 NE5       30.07R FOG     WCI  19
$$
MNZ065>067-074>077-082>085-091>093-171400-
   South Central Minnesota

CITY           SKY/WX    TMP DP  RH WIND       PRES   REMARKS
MANKATO        CLOUDY    21  19  92 NE3       30.09R
NEW ULM        CLOUDY    23  19  86 CALM      30.09R
ST JAMES       CLOUDY    21  19  93 NW3       30.09F
FAIRMONT       CLOUDY    25  23  93 N8        30.07S FOG     WCI  16
GLENCOE        CLOUDY    24  24 100 CALM      30.09S
FARIBAULT      CLOUDY    21  21 100 CALM      30.08S FOG
OWATONNA       FOG       23  21  93 E5        30.07S VSB 1/2 WCI  17
WASECA         FOG       23  21  93 E5        30.09S VSB 1/2 WCI  17
ALBERT LEA     FOG       21  21 100 E5        30.05F VSB 1/2 WCI  15
$$
MNZ078>079-086>088-094>096-171400-
   Southeast Minnesota

CITY           SKY/WX    TMP DP  RH WIND       PRES   REMARKS
ROCHESTER      FOG       25  24  96 NE6       30.06S VSB 1/2 WCI  18
RED WING       CLOUDY    25  21  86 E5        30.09F WCI  19
STANTON        CLOUDY    24  22  93 E3        30.08S FOG
DODGE CENTER   FOG       25  23  93 E5        30.06S VSB 1/2 WCI  19
WINONA         CLOUDY    30  28  93 CALM      30.11S
AUSTIN         FOG       25  23  93 NE5       30.05F VSB 3/4 WCI  19
PRESTON        FOG       25  24  95 E3        30.05F VSB 1/4
$$
ABBREVIATIONS USED IN REMARKS
   TC - TEMPERATURES IN CELSIUS
  WCI - WIND CHILL INDEX
   HX - HEAT INDEX
  VSB - VISIBILITY
$$



USA.gov is the U.S. government's official web portal to all federal, state and local government web resources and services.